Weather History for Point Lay, AK

Change the Weather History Date:

Thursday, February 13, 2014

  Actual Average Record
Temperature  
Mean Temperature -38 °F -  
Max Temperature -36 °F -11 °F 14 °F (2006)
Min Temperature -40 °F -20 °F -40 °F (2014)
Degree Days  
Heating Degree Days 103    
Moisture  
Dew Point -    
Average Humidity    
Maximum Humidity    
Minimum Humidity    
Precipitation  
Precipitation 0.00 in - - ()
Sea Level Pressure  
Sea Level Pressure 30.05 in    
Wind  
Wind Speed 9 mph (NE)    
Max Wind Speed 14 mph    
Max Gust Speed -    
Visibility 10 miles    
Events      
Averages and records for this station are not official NWS values.
T = Trace of Precipitation, MM = Missing Value Source: NWS Daily Summary

Daily Weather History Graph

Daily Weather History Graph

Search for Another Location

Airport:

Trip Planner

Search our weather history database for the weather conditions in past years. The results will help you decide how hot, cold, wet, or windy it might be!

Date:

Astronomy

Feb. 13, 2014 Rise Set
Actual Time 10:31 AM AKST 5:42 PM AKST
Civil Twilight 9:22 AM AKST 6:51 PM AKST
Nautical Twilight 8:10 AM AKST 8:03 PM AKST
Astronomical Twilight 7:01 AM AKST 9:13 PM AKST
Moon 5:07 PM AKST (2/13) 9:33 AM AKST (2/13)
Length of Visible Light 9h 29m
Length of Day
7h 11m
Waxing Gibbous, 99% of the Moon is Illuminated
Feb 13
Waxing Gibbous
Feb 14
Full
Feb 22
Last Quarter
Feb 28
New
Mar 8
First Quarter

Hourly Weather History & Observations

Time (AKST) Temp. Windchill Dew Point Humidity Pressure Visibility Wind Dir Wind Speed Gust Speed Precip Events Conditions
12:56 AM -38.9 °F -57.8 °F - N/A% 30.06 in 10.0 mi NE 5.8 mph - N/A   Clear
1:56 AM -38.9 °F -57.8 °F - N/A% 30.06 in - NE 5.8 mph - N/A   Clear
2:56 AM -38.2 °F -58.9 °F - N/A% 30.04 in - NE 6.9 mph - N/A   Clear
3:56 AM -40.0 °F -62.9 °F - N/A% 30.05 in 10.0 mi ENE 8.1 mph - N/A   Clear
4:56 AM -38.9 °F -63.2 °F - N/A% 30.05 in 10.0 mi NE 9.2 mph - N/A   Clear
5:56 AM -40.0 °F -62.9 °F - N/A% 30.04 in - ENE 8.1 mph - N/A   Clear
6:56 AM -40.0 °F -64.5 °F - N/A% 30.05 in 10.0 mi ENE 9.2 mph - N/A   Clear
7:56 AM -38.9 °F -63.2 °F - N/A% 30.05 in - ENE 9.2 mph - N/A   Clear
8:56 AM -38.2 °F -63.7 °F - N/A% 30.03 in - ENE 10.4 mph - N/A   Clear
9:56 AM -38.9 °F -63.2 °F - N/A% 30.05 in - NE 9.2 mph - N/A   Clear
10:56 AM -38.9 °F -64.6 °F - N/A% 30.05 in - ENE 10.4 mph - N/A   Clear
11:56 AM -38.2 °F -62.3 °F - N/A% 30.04 in - ENE 9.2 mph - N/A   Clear
12:56 PM -37.8 °F -61.8 °F - N/A% 30.06 in - NE 9.2 mph - N/A   Clear
1:56 PM -37.8 °F -61.8 °F - N/A% 30.06 in - NE 9.2 mph - N/A   Clear
2:56 PM -36.4 °F -61.5 °F - N/A% 30.04 in - NE 10.4 mph - N/A   Clear
3:56 PM -36.9 °F -63.4 °F - N/A% 30.05 in - NE 11.5 mph - N/A   Clear
4:56 PM -37.8 °F -65.7 °F - N/A% 30.05 in - NNE 12.7 mph - N/A   Clear
5:56 PM -36.4 °F -62.7 °F - N/A% 30.05 in - NNE 11.5 mph - N/A   Clear
6:37 PM -38.2 °F -67.3 °F - N/A% 30.05 in - NNE 13.8 mph - N/A   Mostly Cloudy
6:56 PM -37.8 °F -65.7 °F - N/A% 30.06 in - NNE 12.7 mph - N/A   Mostly Cloudy
7:30 PM -38.2 °F -66.2 °F - N/A% 30.05 in - NE 12.7 mph - N/A   Clear
7:56 PM -37.8 °F -66.8 °F - N/A% 30.06 in - NE 13.8 mph - N/A   Clear
8:56 PM -38.2 °F -67.3 °F - N/A% 30.05 in - NE 13.8 mph - N/A   Clear
9:16 PM -38.2 °F -65.0 °F - N/A% 30.05 in - NE 11.5 mph - N/A   Mostly Cloudy
9:47 PM -38.2 °F -63.7 °F - N/A% 30.05 in - NE 10.4 mph - N/A   Clear
9:56 PM -38.9 °F -65.9 °F - N/A% 30.07 in - NE 11.5 mph - N/A   Clear
10:56 PM -38.9 °F -68.2 °F - N/A% 30.08 in - NE 13.8 mph - N/A   Clear
11:56 PM -38.2 °F -66.2 °F - N/A% 30.06 in - NE 12.7 mph - N/A   Clear